Year,Month,Day,Hour,Minute,Value (Times are PST for temperature in C)
2019,06,02,00,00,13.40
2019,06,02,00,01,13.40
2019,06,02,00,02,13.30
2019,06,02,00,03,13.30
2019,06,02,00,04,13.30
2019,06,02,00,05,13.30
2019,06,02,00,06,13.30
2019,06,02,00,07,13.30
2019,06,02,00,08,13.20
2019,06,02,00,09,13.20
2019,06,02,00,10,13.20
2019,06,02,00,11,13.20
2019,06,02,00,12,13.10
2019,06,02,00,13,13.10
2019,06,02,00,14,13.10
2019,06,02,00,15,13.00
2019,06,02,00,16,13.00
2019,06,02,00,17,13.00
2019,06,02,00,18,13.00
2019,06,02,00,19,13.00
2019,06,02,00,20,12.90
2019,06,02,00,21,12.90
2019,06,02,00,22,12.90
2019,06,02,00,23,12.90
2019,06,02,00,24,12.90
2019,06,02,00,25,12.90
2019,06,02,00,26,12.90
2019,06,02,00,27,12.90
2019,06,02,00,28,12.90
2019,06,02,00,29,12.90
2019,06,02,00,30,12.90
2019,06,02,00,32,12.90
2019,06,02,00,33,13.00
2019,06,02,00,34,13.00
2019,06,02,00,35,13.00
2019,06,02,00,36,13.00
2019,06,02,00,37,13.00
2019,06,02,00,38,13.00
2019,06,02,00,39,12.90
2019,06,02,00,40,13.00
2019,06,02,00,42,12.90
2019,06,02,00,43,12.90
2019,06,02,00,44,12.90
2019,06,02,00,46,12.90
2019,06,02,00,47,12.90
2019,06,02,00,48,12.90
2019,06,02,00,49,12.90
2019,06,02,00,51,12.90
2019,06,02,00,52,12.90
2019,06,02,00,53,12.90
2019,06,02,00,54,12.90
2019,06,02,00,56,12.80
2019,06,02,00,57,12.80
2019,06,02,00,58,12.80
2019,06,02,00,59,12.80
2019,06,02,01,01,12.80
2019,06,02,01,02,12.80
2019,06,02,01,03,12.80
2019,06,02,01,04,12.80
2019,06,02,01,06,12.80
2019,06,02,01,07,12.80
2019,06,02,01,08,12.80
2019,06,02,01,09,12.80
2019,06,02,01,11,12.80
2019,06,02,01,12,12.80
2019,06,02,01,13,12.80
2019,06,02,01,14,12.80
2019,06,02,01,16,12.80
2019,06,02,01,17,12.80
2019,06,02,01,18,12.70
2019,06,02,01,19,12.70
2019,06,02,01,21,12.70
2019,06,02,01,22,12.70
2019,06,02,01,23,12.70
2019,06,02,01,24,12.70
2019,06,02,01,26,12.70
2019,06,02,01,27,12.60
2019,06,02,01,28,12.60
2019,06,02,01,29,12.60
2019,06,02,01,31,12.60
2019,06,02,01,32,12.60
2019,06,02,01,33,12.50
2019,06,02,01,34,12.50
2019,06,02,01,36,12.50
2019,06,02,01,37,12.50
2019,06,02,01,38,12.50
2019,06,02,01,39,12.50
2019,06,02,01,41,12.40
2019,06,02,01,42,12.40
2019,06,02,01,43,12.40
2019,06,02,01,44,12.40
2019,06,02,01,46,12.30
2019,06,02,01,47,12.30
2019,06,02,01,48,12.30
2019,06,02,01,49,12.30
2019,06,02,01,51,12.30
2019,06,02,01,52,12.30
2019,06,02,01,53,12.30
2019,06,02,01,54,12.30
2019,06,02,01,56,12.30
2019,06,02,01,57,12.20
2019,06,02,01,58,12.20
2019,06,02,01,59,12.20
2019,06,02,02,01,12.20
2019,06,02,02,02,12.20
2019,06,02,02,03,12.20
2019,06,02,02,04,12.20
2019,06,02,02,06,12.20
2019,06,02,02,07,12.20
2019,06,02,02,08,12.20
2019,06,02,02,09,12.20
2019,06,02,02,11,12.20
2019,06,02,02,12,12.30
2019,06,02,02,13,12.30
2019,06,02,02,14,12.30
2019,06,02,02,15,12.30
2019,06,02,02,16,12.30
2019,06,02,02,17,12.30
2019,06,02,02,18,12.30
2019,06,02,02,19,12.30
2019,06,02,02,20,12.30
2019,06,02,02,21,12.30
2019,06,02,02,22,12.30
2019,06,02,02,23,12.30
2019,06,02,02,24,12.30
2019,06,02,02,25,12.30
2019,06,02,02,26,12.30
2019,06,02,02,27,12.30
2019,06,02,02,28,12.30
2019,06,02,02,29,12.30
2019,06,02,02,30,12.30
2019,06,02,02,31,12.30
2019,06,02,02,32,12.20
2019,06,02,02,33,12.20
2019,06,02,02,34,12.20
2019,06,02,02,35,12.20
2019,06,02,02,36,12.20
2019,06,02,02,37,12.20
2019,06,02,02,38,12.20
2019,06,02,02,39,12.20
2019,06,02,02,40,12.20
2019,06,02,02,41,12.10
2019,06,02,02,42,12.10
2019,06,02,02,43,12.10
2019,06,02,02,44,12.10
2019,06,02,02,45,12.10
2019,06,02,02,46,12.10
2019,06,02,02,47,12.10
2019,06,02,02,48,12.10
2019,06,02,02,49,12.10
2019,06,02,02,50,12.10
2019,06,02,02,51,12.10
2019,06,02,02,52,12.10
2019,06,02,02,53,12.10
2019,06,02,02,54,12.10
2019,06,02,02,55,12.10
2019,06,02,02,56,12.20
2019,06,02,02,57,12.20
2019,06,02,02,58,12.10
2019,06,02,02,59,12.10
2019,06,02,03,00,12.10
2019,06,02,03,01,12.10
2019,06,02,03,02,12.10
2019,06,02,03,03,12.10
2019,06,02,03,04,12.10
2019,06,02,03,05,12.10
2019,06,02,03,06,12.00
2019,06,02,03,07,12.00
2019,06,02,03,08,12.00
2019,06,02,03,09,12.00
2019,06,02,03,10,12.00
2019,06,02,03,11,12.00
2019,06,02,03,12,12.00
2019,06,02,03,13,11.90
2019,06,02,03,14,11.90
2019,06,02,03,15,11.90
2019,06,02,03,16,11.90
2019,06,02,03,17,11.80
2019,06,02,03,18,11.80
2019,06,02,03,19,11.80
2019,06,02,03,20,11.80
2019,06,02,03,21,11.80
2019,06,02,03,22,11.80
2019,06,02,03,23,11.80
2019,06,02,03,24,11.80
2019,06,02,03,25,11.80
2019,06,02,03,26,11.80
2019,06,02,03,27,11.70
2019,06,02,03,28,11.70
2019,06,02,03,29,11.70
2019,06,02,03,30,11.70
2019,06,02,03,31,11.70
2019,06,02,03,32,11.60
2019,06,02,03,33,11.60
2019,06,02,03,34,11.60
2019,06,02,03,35,11.60
2019,06,02,03,36,11.60
2019,06,02,03,37,11.60
2019,06,02,03,38,11.60
2019,06,02,03,39,11.60
2019,06,02,03,40,11.60
2019,06,02,03,41,11.60
2019,06,02,03,42,11.60
2019,06,02,03,43,11.60
2019,06,02,03,44,11.60
2019,06,02,03,45,11.40
2019,06,02,03,46,11.40
2019,06,02,03,47,11.40
2019,06,02,03,48,11.40
2019,06,02,03,49,11.40
2019,06,02,03,50,11.40
2019,06,02,03,51,11.40
2019,06,02,03,52,11.40
2019,06,02,03,53,11.40
2019,06,02,03,54,11.40
2019,06,02,03,55,11.40
2019,06,02,03,56,11.40
2019,06,02,03,57,11.40
2019,06,02,03,58,11.40
2019,06,02,03,59,11.40
2019,06,02,04,00,11.40
2019,06,02,04,01,11.40
2019,06,02,04,02,11.40
2019,06,02,04,03,11.40
2019,06,02,04,04,11.30
2019,06,02,04,05,11.30
2019,06,02,04,06,11.30
2019,06,02,04,07,11.30
2019,06,02,04,08,11.30
2019,06,02,04,09,11.30
2019,06,02,04,10,11.30
2019,06,02,04,11,11.30
2019,06,02,04,12,11.30
2019,06,02,04,13,11.30
2019,06,02,04,14,11.30
2019,06,02,04,15,11.20
2019,06,02,04,16,11.20
2019,06,02,04,17,11.20
2019,06,02,04,18,11.20
2019,06,02,04,19,11.20
2019,06,02,04,20,11.20
2019,06,02,04,21,11.20
2019,06,02,04,22,11.20
2019,06,02,04,23,11.20
2019,06,02,04,24,11.20
2019,06,02,04,25,11.20
2019,06,02,04,26,11.20
2019,06,02,04,27,11.20
2019,06,02,04,28,11.10
2019,06,02,04,29,11.10
2019,06,02,04,30,11.10
2019,06,02,04,31,11.10
2019,06,02,04,32,11.10
2019,06,02,04,33,11.10
2019,06,02,04,34,11.10
2019,06,02,04,36,11.10
2019,06,02,04,37,11.10
2019,06,02,04,38,11.10
2019,06,02,04,39,11.10
2019,06,02,04,41,11.10
2019,06,02,04,42,11.10
2019,06,02,04,43,11.10
2019,06,02,04,44,11.10
2019,06,02,04,46,11.10
2019,06,02,04,47,11.10
2019,06,02,04,48,11.10
2019,06,02,04,49,11.10
2019,06,02,04,51,10.90
2019,06,02,04,52,10.90
2019,06,02,04,53,10.90
2019,06,02,04,54,10.90
2019,06,02,04,56,10.90
2019,06,02,04,57,10.90
2019,06,02,04,58,10.90
2019,06,02,04,59,10.90
2019,06,02,05,01,10.90
2019,06,02,05,02,10.90
2019,06,02,05,03,10.90
2019,06,02,05,04,10.90
2019,06,02,05,06,10.90
2019,06,02,05,07,10.90
2019,06,02,05,08,10.90
2019,06,02,05,09,10.90
2019,06,02,05,11,10.90
2019,06,02,05,12,10.90
2019,06,02,05,13,10.90
2019,06,02,05,14,10.90
2019,06,02,05,16,10.90
2019,06,02,05,17,10.90
2019,06,02,05,18,10.90
2019,06,02,05,19,10.90
2019,06,02,05,21,10.80
2019,06,02,05,22,10.80
2019,06,02,05,23,10.80
2019,06,02,05,24,10.80
2019,06,02,05,26,10.80
2019,06,02,05,27,10.80
2019,06,02,05,28,10.80
2019,06,02,05,29,10.80
2019,06,02,05,31,10.80
2019,06,02,05,32,10.80
2019,06,02,05,33,10.80
2019,06,02,05,34,10.80
2019,06,02,05,36,10.80
2019,06,02,05,37,10.80
2019,06,02,05,38,10.80
2019,06,02,05,39,10.80
2019,06,02,05,41,10.80
2019,06,02,05,42,10.80
2019,06,02,05,43,10.90
2019,06,02,05,44,10.90
2019,06,02,05,46,10.90
2019,06,02,05,47,10.90
2019,06,02,05,48,10.90
2019,06,02,05,49,10.90
2019,06,02,05,51,10.90
2019,06,02,05,52,10.90
2019,06,02,05,53,10.90
2019,06,02,05,54,10.90
2019,06,02,05,56,10.90
2019,06,02,05,57,10.90
2019,06,02,05,58,10.90
2019,06,02,05,59,10.90
2019,06,02,06,01,10.90
2019,06,02,06,02,10.90
2019,06,02,06,03,10.90
2019,06,02,06,04,10.90
2019,06,02,06,06,10.90
2019,06,02,06,07,10.90
2019,06,02,06,08,10.90
2019,06,02,06,09,10.90
2019,06,02,06,10,10.90
2019,06,02,06,11,10.90
2019,06,02,06,12,10.90
2019,06,02,06,13,10.90
2019,06,02,06,14,10.90
2019,06,02,06,15,10.90
2019,06,02,06,16,10.90
2019,06,02,06,17,10.90
2019,06,02,06,18,10.90
2019,06,02,06,19,10.90
2019,06,02,06,20,10.90
2019,06,02,06,21,10.90
2019,06,02,06,22,10.90
2019,06,02,06,23,10.90
2019,06,02,06,24,10.90
2019,06,02,06,25,10.90
2019,06,02,06,26,10.90
2019,06,02,06,27,10.90
2019,06,02,06,28,10.90
2019,06,02,06,29,10.90
2019,06,02,06,30,10.90
2019,06,02,06,32,10.90
2019,06,02,06,33,10.90
2019,06,02,06,34,10.90
2019,06,02,06,35,10.90
2019,06,02,06,36,10.90
2019,06,02,06,37,10.90
2019,06,02,06,38,10.90
2019,06,02,06,39,10.90
2019,06,02,06,40,10.90
2019,06,02,06,41,10.90
2019,06,02,06,42,10.90
2019,06,02,06,43,10.90
2019,06,02,06,44,10.90
2019,06,02,06,45,10.80
2019,06,02,06,46,10.80
2019,06,02,06,47,10.80
2019,06,02,06,48,10.80
2019,06,02,06,49,10.90
2019,06,02,06,50,10.90
2019,06,02,06,51,10.90
2019,06,02,06,52,10.90
2019,06,02,06,53,10.80
2019,06,02,06,54,10.80
2019,06,02,06,55,10.80
2019,06,02,06,56,10.80
2019,06,02,06,57,10.80
2019,06,02,06,58,10.80
2019,06,02,06,59,10.90
2019,06,02,07,00,10.90
2019,06,02,07,01,10.90
2019,06,02,07,02,10.90
2019,06,02,07,03,10.90
2019,06,02,07,04,10.90
2019,06,02,07,05,10.90
2019,06,02,07,06,10.90
2019,06,02,07,07,10.90
2019,06,02,07,08,10.90
2019,06,02,07,09,10.90
2019,06,02,07,10,10.90
2019,06,02,07,11,11.10
2019,06,02,07,12,11.10
2019,06,02,07,13,11.10
2019,06,02,07,14,11.10
2019,06,02,07,15,11.10
2019,06,02,07,16,11.10
2019,06,02,07,17,11.10
2019,06,02,07,18,11.10
2019,06,02,07,19,11.10
2019,06,02,07,20,11.10
2019,06,02,07,21,11.10
2019,06,02,07,22,11.10
2019,06,02,07,23,11.20
2019,06,02,07,24,11.20
2019,06,02,07,25,11.20
2019,06,02,07,26,11.20
2019,06,02,07,27,11.30
2019,06,02,07,28,11.30
2019,06,02,07,29,11.30
2019,06,02,07,30,11.40
2019,06,02,07,31,11.40
2019,06,02,07,32,11.40
2019,06,02,07,33,11.40
2019,06,02,07,34,11.40
2019,06,02,07,35,11.60
2019,06,02,07,36,11.60
2019,06,02,07,37,11.60
2019,06,02,07,38,11.60
2019,06,02,07,39,11.60
2019,06,02,07,40,11.60
2019,06,02,07,41,11.60
2019,06,02,07,42,11.60
2019,06,02,07,43,11.70
2019,06,02,07,44,11.70
2019,06,02,07,45,11.70
2019,06,02,07,46,11.80
2019,06,02,07,47,11.80
2019,06,02,07,48,11.80
2019,06,02,07,49,11.80
2019,06,02,07,50,11.80
2019,06,02,07,51,11.80
2019,06,02,07,52,11.80
2019,06,02,07,53,11.80
2019,06,02,07,54,11.80
2019,06,02,07,55,11.80
2019,06,02,07,56,11.80
2019,06,02,07,57,11.80
2019,06,02,07,58,11.90
2019,06,02,07,59,11.90
2019,06,02,08,00,11.90
2019,06,02,08,01,11.90
2019,06,02,08,02,11.90
2019,06,02,08,03,11.90
2019,06,02,08,04,11.90
2019,06,02,08,05,11.90
2019,06,02,08,06,11.90
2019,06,02,08,07,11.80
2019,06,02,08,08,11.80
2019,06,02,08,09,11.80
2019,06,02,08,10,11.90
2019,06,02,08,11,11.90
2019,06,02,08,12,11.90
2019,06,02,08,13,12.00
2019,06,02,08,14,12.10
2019,06,02,08,15,12.20
2019,06,02,08,16,12.30
2019,06,02,08,17,12.30
2019,06,02,08,18,12.30
2019,06,02,08,19,12.30
2019,06,02,08,20,12.40
2019,06,02,08,21,12.40
2019,06,02,08,22,12.40
2019,06,02,08,23,12.50
2019,06,02,08,24,12.50
2019,06,02,08,25,12.50
2019,06,02,08,26,12.60
2019,06,02,08,27,12.60
2019,06,02,08,28,12.60
2019,06,02,08,29,12.60
2019,06,02,08,30,12.70
2019,06,02,08,31,12.70
2019,06,02,08,32,12.70
2019,06,02,08,33,12.70
2019,06,02,08,34,12.70
2019,06,02,08,35,12.70
2019,06,02,08,36,12.70
2019,06,02,08,37,12.80
2019,06,02,08,38,12.80
2019,06,02,08,39,12.80
2019,06,02,08,40,12.80
2019,06,02,08,41,12.80
2019,06,02,08,42,12.80
2019,06,02,08,43,12.90
2019,06,02,08,44,13.00
2019,06,02,08,45,13.10
2019,06,02,08,46,13.20
2019,06,02,08,48,13.30
2019,06,02,08,49,13.30
2019,06,02,08,51,13.60
2019,06,02,08,52,13.70
2019,06,02,08,53,13.70
2019,06,02,08,54,13.90
2019,06,02,08,56,14.10
2019,06,02,08,57,14.20
2019,06,02,08,58,14.30
2019,06,02,08,59,14.40
2019,06,02,09,01,14.60
2019,06,02,09,02,14.70
2019,06,02,09,03,14.80
2019,06,02,09,04,14.80
2019,06,02,09,06,14.90
2019,06,02,09,07,15.00
2019,06,02,09,08,15.00
2019,06,02,09,09,15.10
2019,06,02,09,11,15.20
2019,06,02,09,12,15.20
2019,06,02,09,13,15.10
2019,06,02,09,14,15.10
2019,06,02,09,16,15.10
2019,06,02,09,17,15.10
2019,06,02,09,18,15.00
2019,06,02,09,19,14.90
2019,06,02,09,21,14.90
2019,06,02,09,22,14.90
2019,06,02,09,23,14.90
2019,06,02,09,24,14.80
2019,06,02,09,26,14.80
2019,06,02,09,27,14.90
2019,06,02,09,28,14.90
2019,06,02,09,29,15.00
2019,06,02,09,31,15.30
2019,06,02,09,32,15.30
2019,06,02,09,33,15.30
2019,06,02,09,34,15.30
2019,06,02,09,36,15.10
2019,06,02,09,37,14.90
2019,06,02,09,38,14.80
2019,06,02,09,39,14.60
2019,06,02,09,41,14.40
2019,06,02,09,42,14.30
2019,06,02,09,43,14.30
2019,06,02,09,44,14.20
2019,06,02,09,46,14.00
2019,06,02,09,47,13.90
2019,06,02,09,48,13.90
2019,06,02,09,49,13.90
2019,06,02,09,51,13.80
2019,06,02,09,52,13.80
2019,06,02,09,53,13.70
2019,06,02,09,54,13.70
2019,06,02,09,56,13.80
2019,06,02,09,57,13.80
2019,06,02,09,58,13.80
2019,06,02,09,59,13.70
2019,06,02,10,01,13.70
2019,06,02,10,02,13.70
2019,06,02,10,03,13.60
2019,06,02,10,04,13.60
2019,06,02,10,06,13.50
2019,06,02,10,07,13.60
2019,06,02,10,08,13.60
2019,06,02,10,09,13.70
2019,06,02,10,11,13.70
2019,06,02,10,12,13.80
2019,06,02,10,13,13.70
2019,06,02,10,14,13.70
2019,06,02,10,15,13.70
2019,06,02,10,16,13.70
2019,06,02,10,17,13.80
2019,06,02,10,18,13.80
2019,06,02,10,19,13.80
2019,06,02,10,20,13.90
2019,06,02,10,21,13.90
2019,06,02,10,22,13.90
2019,06,02,10,23,13.90
2019,06,02,10,24,14.00
2019,06,02,10,25,14.10
2019,06,02,10,26,14.20
2019,06,02,10,27,14.20
2019,06,02,10,28,14.20
2019,06,02,10,29,14.20
2019,06,02,10,30,14.20
2019,06,02,10,31,14.20
2019,06,02,10,32,14.20
2019,06,02,10,33,14.10
2019,06,02,10,34,14.10
2019,06,02,10,35,14.10
2019,06,02,10,36,14.10
2019,06,02,10,37,14.10
2019,06,02,10,38,14.10
2019,06,02,10,39,14.20
2019,06,02,10,40,14.20
2019,06,02,10,41,14.20
2019,06,02,10,42,14.20
2019,06,02,10,43,14.30
2019,06,02,10,44,14.40
2019,06,02,10,45,14.50
2019,06,02,10,46,14.60
2019,06,02,10,47,14.70
2019,06,02,10,48,14.80
2019,06,02,10,49,14.80
2019,06,02,10,50,14.80
2019,06,02,10,51,14.80
2019,06,02,10,52,14.80
2019,06,02,10,53,14.90
2019,06,02,10,54,15.00
2019,06,02,10,55,15.00
2019,06,02,10,56,15.10
2019,06,02,10,57,15.20
2019,06,02,10,58,15.30
2019,06,02,10,59,15.30
2019,06,02,11,00,15.30
2019,06,02,11,01,15.40
2019,06,02,11,02,15.30
2019,06,02,11,03,15.30
2019,06,02,11,04,15.30
2019,06,02,11,05,15.30
2019,06,02,11,06,15.30
2019,06,02,11,07,15.30
2019,06,02,11,08,15.30
2019,06,02,11,09,15.30
2019,06,02,11,10,15.30
2019,06,02,11,11,15.30
2019,06,02,11,12,15.40
2019,06,02,11,13,15.40
2019,06,02,11,14,15.40
2019,06,02,11,15,15.40
2019,06,02,11,16,15.30
2019,06,02,11,17,15.30
2019,06,02,11,18,15.30
2019,06,02,11,19,15.40
2019,06,02,11,20,15.40
2019,06,02,11,21,15.40
2019,06,02,11,22,15.40
2019,06,02,11,23,15.40
2019,06,02,11,24,15.50
2019,06,02,11,25,15.50
2019,06,02,11,26,15.60
2019,06,02,11,27,15.60
2019,06,02,11,28,15.60
2019,06,02,11,29,15.60
2019,06,02,11,30,15.60
2019,06,02,11,31,15.60
2019,06,02,11,32,15.60
2019,06,02,11,33,15.60
2019,06,02,11,34,15.60
2019,06,02,11,35,15.60
2019,06,02,11,36,15.60
2019,06,02,11,37,15.60
2019,06,02,11,38,15.70
2019,06,02,11,39,15.60
2019,06,02,11,40,15.50
2019,06,02,11,41,15.40
2019,06,02,11,42,15.30
2019,06,02,11,43,15.30
2019,06,02,11,44,15.20
2019,06,02,11,45,15.20
2019,06,02,11,46,15.10
2019,06,02,11,47,15.20
2019,06,02,11,48,15.20
2019,06,02,11,49,15.30
2019,06,02,11,50,15.30
2019,06,02,11,51,15.30
2019,06,02,11,52,15.20
2019,06,02,11,53,15.20
2019,06,02,11,54,15.20
2019,06,02,11,55,15.20
2019,06,02,11,56,15.20
2019,06,02,11,57,15.20
2019,06,02,11,58,15.20
2019,06,02,11,59,15.30
2019,06,02,12,00,15.30
2019,06,02,12,01,15.30
2019,06,02,12,02,15.30
2019,06,02,12,03,15.40
2019,06,02,12,04,15.50
2019,06,02,12,05,15.60
2019,06,02,12,06,15.50
2019,06,02,12,07,15.60
2019,06,02,12,08,15.60
2019,06,02,12,09,15.70
2019,06,02,12,10,15.70
2019,06,02,12,11,15.70
2019,06,02,12,12,15.70
2019,06,02,12,13,15.60
2019,06,02,12,14,15.60
2019,06,02,12,15,15.60
2019,06,02,12,16,15.70
2019,06,02,12,17,15.70
2019,06,02,12,18,15.60
2019,06,02,12,19,15.60
2019,06,02,12,20,15.60
2019,06,02,12,21,15.60
2019,06,02,12,22,15.70
2019,06,02,12,23,15.60
2019,06,02,12,24,15.60
2019,06,02,12,25,15.60
2019,06,02,12,26,15.50
2019,06,02,12,27,15.50
2019,06,02,12,28,15.40
2019,06,02,12,29,15.30
2019,06,02,12,30,15.30
2019,06,02,12,32,15.20
2019,06,02,12,33,15.20
2019,06,02,12,34,15.20
2019,06,02,12,35,15.00
2019,06,02,12,36,15.00
2019,06,02,12,37,15.00
2019,06,02,12,38,15.00
2019,06,02,12,39,15.10
2019,06,02,12,40,15.20
2019,06,02,12,41,15.30
2019,06,02,12,42,15.30
2019,06,02,12,43,15.30
2019,06,02,12,44,15.30
2019,06,02,12,45,15.30
2019,06,02,12,46,15.30
2019,06,02,12,47,15.30
2019,06,02,12,48,15.30
2019,06,02,12,49,15.30
2019,06,02,12,50,15.30
2019,06,02,12,51,15.30
2019,06,02,12,52,15.40
2019,06,02,12,53,15.50
2019,06,02,12,54,15.50
2019,06,02,12,55,15.60
2019,06,02,12,57,15.80
2019,06,02,12,59,15.90
2019,06,02,13,00,15.90
2019,06,02,13,02,16.10
2019,06,02,13,03,16.10
2019,06,02,13,04,15.90
2019,06,02,13,06,15.80
2019,06,02,13,07,15.70
2019,06,02,13,08,15.60
2019,06,02,13,09,15.60
2019,06,02,13,11,15.40
2019,06,02,13,12,15.40
2019,06,02,13,13,15.40
2019,06,02,13,14,15.40
2019,06,02,13,16,15.50
2019,06,02,13,17,15.60
2019,06,02,13,18,15.60
2019,06,02,13,19,15.60
2019,06,02,13,21,15.60
2019,06,02,13,22,15.60
2019,06,02,13,23,15.60
2019,06,02,13,24,15.70
2019,06,02,13,26,15.80
2019,06,02,13,27,15.80
2019,06,02,13,28,15.90
2019,06,02,13,29,15.90
2019,06,02,13,31,16.10
2019,06,02,13,32,16.20
2019,06,02,13,33,16.20
2019,06,02,13,34,16.30
2019,06,02,13,36,16.40
2019,06,02,13,37,16.40
2019,06,02,13,38,16.40
2019,06,02,13,39,16.40
2019,06,02,13,41,16.70
2019,06,02,13,42,16.80
2019,06,02,13,43,17.00
2019,06,02,13,44,17.20
2019,06,02,13,46,17.40
2019,06,02,13,47,17.60
2019,06,02,13,48,17.70
2019,06,02,13,49,17.80
2019,06,02,13,51,18.10
2019,06,02,13,52,18.20
2019,06,02,13,53,18.20
2019,06,02,13,54,18.30
2019,06,02,13,56,18.50
2019,06,02,13,57,18.50
2019,06,02,13,58,18.50
2019,06,02,13,59,18.60
2019,06,02,14,01,18.70
2019,06,02,14,02,18.70
2019,06,02,14,03,18.80
2019,06,02,14,04,18.80
2019,06,02,14,06,18.90
2019,06,02,14,07,18.90
2019,06,02,14,08,18.90
2019,06,02,14,09,19.10
2019,06,02,14,11,19.10
2019,06,02,14,12,19.10
2019,06,02,14,13,19.20
2019,06,02,14,14,19.30
2019,06,02,14,16,19.40
2019,06,02,14,17,19.40
2019,06,02,14,18,19.50
2019,06,02,14,19,19.50
2019,06,02,14,21,19.50
2019,06,02,14,22,19.40
2019,06,02,14,23,19.40
2019,06,02,14,24,19.30
2019,06,02,14,25,19.20
2019,06,02,14,26,19.10
2019,06,02,14,27,19.10
2019,06,02,14,28,18.90
2019,06,02,14,29,18.80
2019,06,02,14,31,18.70
2019,06,02,14,32,18.70
2019,06,02,14,33,18.70
2019,06,02,14,34,18.70
2019,06,02,14,36,18.80
2019,06,02,14,37,18.90
2019,06,02,14,38,18.90
2019,06,02,14,39,18.90
2019,06,02,14,41,19.10
2019,06,02,14,42,18.90
2019,06,02,14,43,18.90
2019,06,02,14,44,18.90
2019,06,02,14,46,18.70
2019,06,02,14,47,18.60
2019,06,02,14,48,18.40
2019,06,02,14,49,18.30
2019,06,02,14,50,18.20
2019,06,02,14,51,18.20
2019,06,02,14,52,18.10
2019,06,02,14,53,17.90
2019,06,02,14,54,17.90
2019,06,02,14,55,17.90
2019,06,02,14,56,17.90
2019,06,02,14,57,17.80
2019,06,02,14,58,17.70
2019,06,02,14,59,17.60
2019,06,02,15,00,17.40
2019,06,02,15,01,17.30
2019,06,02,15,02,17.10
2019,06,02,15,03,16.90
2019,06,02,15,04,16.80
2019,06,02,15,05,16.70
2019,06,02,15,06,16.60
2019,06,02,15,07,16.60
2019,06,02,15,08,16.40
2019,06,02,15,09,16.40
2019,06,02,15,10,16.40
2019,06,02,15,11,16.40
2019,06,02,15,12,16.40
2019,06,02,15,13,16.40
2019,06,02,15,14,16.40
2019,06,02,15,15,16.30
2019,06,02,15,16,16.30
2019,06,02,15,17,16.30
2019,06,02,15,18,16.30
2019,06,02,15,19,16.20
2019,06,02,15,20,16.20
2019,06,02,15,21,16.20
2019,06,02,15,22,16.10
2019,06,02,15,23,16.10
2019,06,02,15,24,16.10
2019,06,02,15,25,16.10
2019,06,02,15,26,16.10
2019,06,02,15,27,16.10
2019,06,02,15,28,15.90
2019,06,02,15,29,15.90
2019,06,02,15,30,16.10
2019,06,02,15,31,16.10
2019,06,02,15,32,16.10
2019,06,02,15,33,16.10
2019,06,02,15,34,16.10
2019,06,02,15,35,16.20
2019,06,02,15,36,16.20
2019,06,02,15,37,16.30
2019,06,02,15,38,16.30
2019,06,02,15,39,16.30
2019,06,02,15,40,16.30
2019,06,02,15,41,16.40
2019,06,02,15,42,16.40
2019,06,02,15,43,16.40
2019,06,02,15,44,16.60
2019,06,02,15,45,16.70
2019,06,02,15,46,17.00
2019,06,02,15,47,17.30
2019,06,02,15,48,17.60
2019,06,02,15,49,17.90
2019,06,02,15,50,18.10
2019,06,02,15,51,18.20
2019,06,02,15,52,18.50
2019,06,02,15,53,18.70
2019,06,02,15,54,18.90
2019,06,02,15,55,19.10
2019,06,02,15,56,19.20
2019,06,02,15,57,19.30
2019,06,02,15,58,19.50
2019,06,02,15,59,19.60
2019,06,02,16,00,19.70
2019,06,02,16,01,19.80
2019,06,02,16,02,19.80
2019,06,02,16,03,19.90
2019,06,02,16,04,19.90
2019,06,02,16,05,19.90
2019,06,02,16,06,19.90
2019,06,02,16,07,19.90
2019,06,02,16,08,19.90
2019,06,02,16,09,19.90
2019,06,02,16,10,19.90
2019,06,02,16,11,19.90
2019,06,02,16,12,19.90
2019,06,02,16,13,19.90
2019,06,02,16,14,19.90
2019,06,02,16,15,19.90
2019,06,02,16,16,19.80
2019,06,02,16,17,19.80
2019,06,02,16,18,19.70
2019,06,02,16,19,19.70
2019,06,02,16,20,19.60
2019,06,02,16,21,19.60
2019,06,02,16,22,19.60
2019,06,02,16,23,19.50
2019,06,02,16,24,19.50
2019,06,02,16,25,19.50
2019,06,02,16,26,19.40
2019,06,02,16,27,19.40
2019,06,02,16,28,19.30
2019,06,02,16,29,19.30
2019,06,02,16,30,19.20
2019,06,02,16,31,19.10
2019,06,02,16,32,19.10
2019,06,02,16,33,18.90
2019,06,02,16,34,18.90
2019,06,02,16,35,18.80
2019,06,02,16,36,18.70
2019,06,02,16,37,18.60
2019,06,02,16,38,18.60
2019,06,02,16,39,18.60
2019,06,02,16,40,18.50
2019,06,02,16,41,18.50
2019,06,02,16,42,18.40
2019,06,02,16,43,18.30
2019,06,02,16,44,18.20
2019,06,02,16,45,18.20
2019,06,02,16,46,18.10
2019,06,02,16,47,18.10
2019,06,02,16,48,17.90
2019,06,02,16,49,17.90
2019,06,02,16,50,17.90
2019,06,02,16,51,17.90
2019,06,02,16,52,17.90
2019,06,02,16,53,17.90
2019,06,02,16,54,18.10
2019,06,02,16,55,18.10
2019,06,02,16,56,18.20
2019,06,02,16,57,18.20
2019,06,02,16,58,18.20
2019,06,02,16,59,18.20
2019,06,02,17,00,18.30
2019,06,02,17,01,18.30
2019,06,02,17,02,18.30
2019,06,02,17,03,18.30
2019,06,02,17,04,18.30
2019,06,02,17,05,18.30
2019,06,02,17,06,18.20
2019,06,02,17,07,18.10
2019,06,02,17,08,17.90
2019,06,02,17,09,17.70
2019,06,02,17,10,17.50
2019,06,02,17,12,17.30
2019,06,02,17,13,17.10
2019,06,02,17,14,16.80
2019,06,02,17,16,16.30
2019,06,02,17,17,16.10
2019,06,02,17,18,15.80
2019,06,02,17,19,15.80
2019,06,02,17,21,15.50
2019,06,02,17,22,15.50
2019,06,02,17,23,15.40
2019,06,02,17,24,15.50
2019,06,02,17,26,15.80
2019,06,02,17,27,15.90
2019,06,02,17,28,16.20
2019,06,02,17,29,16.40
2019,06,02,17,31,16.80
2019,06,02,17,32,17.00
2019,06,02,17,33,17.20
2019,06,02,17,34,17.30
2019,06,02,17,36,17.70
2019,06,02,17,37,17.90
2019,06,02,17,38,18.10
2019,06,02,17,39,18.20
2019,06,02,17,41,18.40
2019,06,02,17,42,18.50
2019,06,02,17,43,18.50
2019,06,02,17,44,18.60
2019,06,02,17,46,18.70
2019,06,02,17,48,18.70
2019,06,02,17,49,18.70
2019,06,02,17,51,18.70
2019,06,02,17,52,18.70
2019,06,02,17,53,18.70
2019,06,02,17,54,18.70
2019,06,02,17,56,18.70
2019,06,02,17,57,18.60
2019,06,02,17,58,18.60
2019,06,02,17,59,18.60
2019,06,02,18,01,18.60
2019,06,02,18,02,18.60
2019,06,02,18,03,18.50
2019,06,02,18,04,18.50
2019,06,02,18,06,18.50
2019,06,02,18,07,18.50
2019,06,02,18,08,18.50
2019,06,02,18,09,18.50
2019,06,02,18,11,18.50
2019,06,02,18,12,18.50
2019,06,02,18,13,18.50
2019,06,02,18,14,18.40
2019,06,02,18,16,18.40
2019,06,02,18,17,18.40
2019,06,02,18,18,18.40
2019,06,02,18,19,18.30
2019,06,02,18,21,18.20
2019,06,02,18,22,18.20
2019,06,02,18,23,18.20
2019,06,02,18,24,18.20
2019,06,02,18,26,18.20
2019,06,02,18,27,18.20
2019,06,02,18,28,18.20
2019,06,02,18,29,18.20
2019,06,02,18,30,18.10
2019,06,02,18,32,18.10
2019,06,02,18,33,17.90
2019,06,02,18,34,17.90
2019,06,02,18,36,17.70
2019,06,02,18,37,17.60
2019,06,02,18,38,17.50
2019,06,02,18,39,17.40
2019,06,02,18,41,17.20
2019,06,02,18,42,17.10
2019,06,02,18,43,17.00
2019,06,02,18,44,16.90
2019,06,02,18,45,16.80
2019,06,02,18,46,16.70
2019,06,02,18,47,16.70
2019,06,02,18,48,16.60
2019,06,02,18,49,16.40
2019,06,02,18,50,16.40
2019,06,02,18,51,16.30
2019,06,02,18,52,16.30
2019,06,02,18,53,16.20
2019,06,02,18,54,16.10
2019,06,02,18,55,16.10
2019,06,02,18,56,16.10
2019,06,02,18,57,15.90
2019,06,02,18,58,15.90
2019,06,02,18,59,15.80
2019,06,02,19,00,15.80
2019,06,02,19,01,15.70